TimeMDT,TemperatureF,Dew PointF,Humidity,Sea Level PressureIn,VisibilityMPH,Wind Direction,Wind SpeedMPH,Gust SpeedMPH,PrecipitationIn,Events,Conditions,WindDirDegrees,DateUTC
12:35 AM,82.4,46.4,28,29.94,10.0,WSW,10.4,-,N/A,,Mostly Cloudy,250,2013-07-12 06:35:00
12:55 AM,82.4,46.4,28,29.94,10.0,WSW,13.8,20.7,N/A,,Scattered Clouds,240,2013-07-12 06:55:00
1:15 AM,82.4,46.4,28,29.92,10.0,West,8.1,-,N/A,,Clear,260,2013-07-12 07:15:00
1:35 AM,78.8,48.2,34,29.92,10.0,West,4.6,-,N/A,,Clear,270,2013-07-12 07:35:00
1:55 AM,77.0,48.2,36,29.94,10.0,ESE,6.9,17.3,N/A,,Clear,110,2013-07-12 07:55:00
2:15 AM,75.2,50.0,41,29.94,10.0,SSE,5.8,-,N/A,,Clear,150,2013-07-12 08:15:00
2:35 AM,75.2,50.0,41,29.94,10.0,South,6.9,-,N/A,,Clear,180,2013-07-12 08:35:00
2:55 AM,73.4,50.0,44,29.94,10.0,South,3.5,-,N/A,,Clear,170,2013-07-12 08:55:00
3:15 AM,71.6,50.0,46,29.94,10.0,Calm,Calm,-,N/A,,Clear,0,2013-07-12 09:15:00
3:35 AM,68.0,48.2,49,29.94,10.0,North,6.9,-,N/A,,Clear,360,2013-07-12 09:35:00
3:55 AM,66.2,51.8,60,29.95,10.0,NNE,3.5,-,N/A,,Clear,30,2013-07-12 09:55:00
4:15 AM,64.4,50.0,59,29.95,10.0,Calm,Calm,-,N/A,,Clear,0,2013-07-12 10:15:00
4:35 AM,64.4,50.0,59,29.94,10.0,Calm,Calm,-,N/A,,Clear,0,2013-07-12 10:35:00
4:55 AM,62.6,51.8,68,29.95,10.0,NNE,4.6,-,N/A,,Clear,30,2013-07-12 10:55:00
5:15 AM,64.4,50.0,59,29.95,10.0,NNE,6.9,-,N/A,,Clear,20,2013-07-12 11:15:00
5:35 AM,64.4,50.0,59,29.96,10.0,Calm,Calm,-,N/A,,Clear,0,2013-07-12 11:35:00
5:55 AM,62.6,50.0,63,29.97,3.0,Calm,Calm,-,N/A,,Clear,0,2013-07-12 11:55:00
6:15 AM,64.4,51.8,64,29.98,9.0,Calm,Calm,-,N/A,,Clear,0,2013-07-12 12:15:00
6:35 AM,64.4,53.6,68,29.98,10.0,ESE,4.6,-,N/A,,Clear,110,2013-07-12 12:35:00
6:55 AM,66.2,55.4,68,29.98,10.0,ESE,5.8,-,N/A,,Clear,110,2013-07-12 12:55:00
7:35 AM,71.6,55.4,57,30.00,9.0,East,5.8,-,N/A,,Clear,100,2013-07-12 13:35:00
7:55 AM,75.2,57.2,53,30.00,10.0,SE,5.8,-,N/A,,Clear,130,2013-07-12 13:55:00
8:15 AM,75.2,55.4,50,30.01,10.0,SE,5.8,-,N/A,,Clear,130,2013-07-12 14:15:00
8:35 AM,78.8,57.2,47,30.01,10.0,SE,4.6,-,N/A,,Clear,130,2013-07-12 14:35:00
8:55 AM,78.8,57.2,47,30.02,10.0,SE,6.9,-,N/A,,Clear,130,2013-07-12 14:55:00
9:15 AM,78.8,57.2,47,30.03,10.0,SE,5.8,-,N/A,,Clear,140,2013-07-12 15:15:00
9:35 AM,84.2,57.2,40,30.02,10.0,SSE,4.6,-,N/A,,Clear,160,2013-07-12 15:35:00
9:55 AM,87.8,55.4,33,30.02,10.0,SE,4.6,-,N/A,,Clear,130,2013-07-12 15:55:00
10:15 AM,86.0,53.6,33,30.02,10.0,ESE,8.1,-,N/A,,Clear,110,2013-07-12 16:15:00
10:35 AM,87.8,53.6,31,30.02,10.0,SE,5.8,-,N/A,,Clear,130,2013-07-12 16:35:00
10:55 AM,86.0,53.6,33,30.03,10.0,Calm,Calm,-,N/A,,Clear,0,2013-07-12 16:55:00
11:35 AM,87.8,55.4,33,30.03,10.0,WNW,9.2,-,N/A,,Clear,290,2013-07-12 17:35:00
11:55 AM,89.6,55.4,31,30.03,10.0,North,8.1,-,N/A,,Clear,350,2013-07-12 17:55:00
12:15 PM,89.6,55.4,31,30.02,10.0,NW,9.2,-,N/A,,Clear,320,2013-07-12 18:15:00
12:35 PM,89.6,55.4,31,30.02,10.0,WNW,8.1,-,N/A,,Clear,300,2013-07-12 18:35:00
1:15 PM,91.4,53.6,28,30.00,10.0,NW,5.8,-,N/A,,Clear,310,2013-07-12 19:15:00
1:35 PM,91.4,53.6,28,29.99,10.0,North,6.9,-,N/A,,Clear,350,2013-07-12 19:35:00
1:55 PM,91.4,51.8,26,29.99,10.0,Calm,Calm,-,N/A,,Clear,0,2013-07-12 19:55:00
2:15 PM,93.2,51.8,24,29.98,10.0,ENE,8.1,-,N/A,,Clear,70,2013-07-12 20:15:00
2:55 PM,96.8,50.0,20,29.98,10.0,SSE,8.1,17.3,N/A,,Clear,160,2013-07-12 20:55:00
3:15 PM,95.0,48.2,20,29.97,10.0,East,10.4,16.1,N/A,,Scattered Clouds,80,2013-07-12 21:15:00
3:55 PM,93.2,48.2,21,29.98,10.0,WSW,8.1,-,N/A,Thunderstorm,Overcast,240,2013-07-12 21:55:00
4:15 PM,80.6,55.4,42,30.00,9.0,WNW,16.1,23.0,N/A,Thunderstorm,Thunderstorm,300,2013-07-12 22:15:00
4:55 PM,71.6,57.2,60,30.07,9.0,SSW,33.4,39.1,0.02,Thunderstorm,Overcast,210,2013-07-12 22:55:00
5:15 PM,68.0,57.2,68,30.10,10.0,WNW,10.4,-,0.06,Thunderstorm,Thunderstorm,300,2013-07-12 23:15:00
5:35 PM,66.2,59.0,78,30.07,10.0,NW,12.7,-,0.07,,Mostly Cloudy,320,2013-07-12 23:35:00
6:15 PM,69.8,59.0,68,30.01,10.0,NNW,19.6,-,N/A,,Partly Cloudy,330,2013-07-13 00:15:00
6:35 PM,71.6,59.0,64,30.01,10.0,NNW,18.4,24.2,N/A,,Partly Cloudy,330,2013-07-13 00:35:00
6:55 PM,71.6,59.0,64,30.02,10.0,NNW,13.8,-,N/A,,Scattered Clouds,330,2013-07-13 00:55:00
7:35 PM,71.6,59.0,64,30.03,10.0,NW,13.8,-,N/A,,Mostly Cloudy,320,2013-07-13 01:35:00
7:55 PM,71.6,57.2,60,30.02,10.0,NNW,16.1,-,N/A,Thunderstorm,Scattered Clouds,330,2013-07-13 01:55:00
8:15 PM,73.4,57.2,57,30.02,10.0,North,9.2,-,N/A,Thunderstorm,Scattered Clouds,350,2013-07-13 02:15:00
8:55 PM,66.2,57.2,73,30.11,6.0,South,11.5,26.5,0.02,Thunderstorm,Thunderstorm,170,2013-07-13 02:55:00
9:15 PM,64.4,59.0,83,30.12,10.0,South,8.1,-,0.07,Thunderstorm,Mostly Cloudy,170,2013-07-13 03:15:00
9:35 PM,66.2,59.0,78,30.12,9.0,East,9.2,-,0.08,Thunderstorm,Thunderstorm,90,2013-07-13 03:35:00
9:55 PM,66.2,59.0,78,30.09,10.0,ENE,11.5,-,0.09,,Mostly Cloudy,70,2013-07-13 03:55:00
10:15 PM,64.4,59.0,83,30.07,10.0,NE,10.4,-,N/A,,Mostly Cloudy,50,2013-07-13 04:15:00
10:35 PM,66.2,59.0,78,30.06,10.0,ENE,9.2,-,N/A,,Partly Cloudy,70,2013-07-13 04:35:00
10:55 PM,66.2,60.8,83,30.07,10.0,NNW,10.4,-,N/A,,Mostly Cloudy,340,2013-07-13 04:55:00
11:15 PM,66.2,60.8,83,30.08,10.0,NNW,11.5,-,N/A,,Scattered Clouds,340,2013-07-13 05:15:00
11:35 PM,66.2,60.8,83,30.09,10.0,North,9.2,-,N/A,,Scattered Clouds,350,2013-07-13 05:35:00
11:55 PM,66.2,59.0,78,30.09,10.0,North,3.5,-,N/A,,Scattered Clouds,10,2013-07-13 05:55:00